Total_Precipitation_Accumulation
0.08 0.09 0.11 0.11 0.18 0.19 0.28 0.29 0.29 0.27 0.21 0.15 0.12 0.14 0.45 0.73 0.77 0.93 0.94 1.25 1.34 1.30
0.11 0.20 0.26 0.34 0.41 0.43 0.46 0.55 0.58 0.65 0.65 0.69 0.62 0.74 1.22 1.47 1.26 1.28 1.32 1.11 1.33 1.17
0.19 0.24 0.33 0.32 0.37 0.46 0.48 0.61 0.60 0.64 0.88 0.97 0.81 0.69 0.72 0.70 0.60 0.49 0.41 0.36 0.32 0.29
0.23 0.21 0.20 0.16 0.19 0.27 0.34 0.41 0.52 0.47 0.61 0.69 0.61 0.75 0.71 0.65 0.71 0.40 0.19 0.04 0.02 0.01
0.16 0.16 0.17 0.19 0.23 0.33 0.53 0.61 0.55 0.51 0.46 0.59 0.61 0.39 0.32 0.33 0.37 0.19 0.07 0.00 0.00 0.00
0.19 0.15 0.08 0.05 0.11 0.15 0.17 0.19 0.17 0.16 0.18 0.22 0.29 0.31 0.21 0.12 0.10 0.05 0.00 0.00 0.00 0.00
0.07 0.08 0.05 0.02 0.02 0.02 0.04 0.07 0.09 0.13 0.16 0.17 0.14 0.09 0.05 0.04 0.02 0.01 0.00 0.00 0.00 0.00
0.14 0.17 0.19 0.20 0.16 0.12 0.09 0.10 0.10 0.12 0.16 0.19 0.18 0.19 0.17 0.13 0.09 0.07 0.06 0.04 0.02 0.00
0.09 0.10 0.13 0.14 0.14 0.15 0.18 0.25 0.28 0.31 0.31 0.29 0.28 0.27 0.23 0.20 0.16 0.12 0.08 0.05 0.02 0.00
0.08 0.10 0.15 0.20 0.25 0.29 0.30 0.28 0.25 0.24 0.25 0.24 0.22 0.16 0.11 0.08 0.04 0.01 0.00 0.00 0.00 0.00
0.12 0.15 0.21 0.29 0.32 0.29 0.27 0.28 0.29 0.25 0.23 0.19 0.13 0.08 0.05 0.03 0.01 0.00 0.00 0.00 0.00 0.00
0.14 0.16 0.18 0.18 0.21 0.21 0.20 0.19 0.19 0.15 0.07 0.03 0.02 0.01 0.00 0.00 0.00 0.00 0.00 0.00 0.00 0.00
0.14 0.14 0.15 0.17 0.20 0.16 0.10 0.08 0.03 0.01 0.00 0.00 0.00 0.00 0.00 0.00 0.00 0.00 0.00 0.00 0.00 0.00
0.11 0.09 0.09 0.07 0.04 0.02 0.01 0.01 0.01 0.00 0.00 0.00 0.00 0.00 0.00 0.00 0.00 0.00 0.00 0.00 0.00 0.00